Terminal Aerodrome Forecast
Issued by NWS Pittsburgh, PA

Home | Current Version | Previous Version | Text Only | Print | Product List | Glossary On
Versions: 1 2 3 4 5 6 7 8 9 10 11 12 13 14 15 16 17 18 19 20 21 22 23 24 25 26 27 28 29 30 31 32 33 34 35 36 37 38 39 40 41 42 43 44 45 46 47 48 49 50
000
FTUS41 KPBZ 260856 AAR
TAFPIT
TAF AMD
KPIT 260856Z 2609/2712 10003KT P6SM OVC035
     FM261000 12005KT P6SM OVC015
     FM261200 25005KT P6SM -RA OVC008
     FM261900 28005KT P6SM OVC015
     FM262100 32005KT P6SM SCT007 OVC015=

USA.gov is the U.S. government's official web portal to all federal, state and local government web resources and services.